Total_Precipitation_Accumulation
0.07 0.09 0.13 0.17 0.19 0.21 0.24 0.26 0.26 0.26 0.25 0.25 0.26 0.26 0.25 0.24 0.24 0.25 0.26 0.26 0.27 0.26 0.25 0.25 0.27 0.28 0.31 0.33 0.36 0.41 0.47 0.54 0.55 0.45 0.38 0.35 0.35 0.34 0.33 0.30 0.27 0.26 0.26
0.05 0.07 0.10 0.12 0.13 0.15 0.19 0.19 0.20 0.22 0.22 0.20 0.19 0.19 0.19 0.18 0.17 0.18 0.19 0.20 0.21 0.22 0.23 0.24 0.26 0.27 0.30 0.33 0.34 0.35 0.36 0.37 0.40 0.37 0.29 0.25 0.22 0.21 0.20 0.19 0.17 0.17 0.15
0.05 0.06 0.08 0.10 0.10 0.11 0.14 0.15 0.16 0.19 0.22 0.22 0.19 0.16 0.15 0.15 0.14 0.14 0.15 0.16 0.18 0.20 0.23 0.26 0.28 0.29 0.31 0.31 0.30 0.28 0.27 0.25 0.26 0.29 0.22 0.16 0.14 0.12 0.13 0.11 0.10 0.11 0.10
0.06 0.07 0.07 0.09 0.10 0.11 0.12 0.12 0.14 0.14 0.16 0.17 0.18 0.16 0.15 0.15 0.15 0.15 0.17 0.19 0.22 0.25 0.27 0.29 0.31 0.31 0.30 0.27 0.23 0.21 0.20 0.19 0.19 0.22 0.22 0.18 0.14 0.09 0.11 0.11 0.10 0.09 0.08
0.06 0.08 0.08 0.09 0.09 0.10 0.10 0.10 0.11 0.12 0.13 0.13 0.14 0.15 0.15 0.17 0.19 0.23 0.25 0.29 0.33 0.34 0.34 0.32 0.29 0.26 0.22 0.18 0.17 0.16 0.15 0.17 0.23 0.28 0.26 0.20 0.14 0.12 0.11 0.11 0.12 0.10 0.07
0.07 0.08 0.08 0.08 0.09 0.09 0.10 0.11 0.12 0.13 0.15 0.16 0.19 0.23 0.28 0.32 0.40 0.39 0.35 0.34 0.33 0.30 0.27 0.23 0.21 0.19 0.16 0.15 0.14 0.14 0.19 0.26 0.34 0.36 0.29 0.20 0.10 0.07 0.09 0.15 0.20 0.23 0.16
0.07 0.09 0.09 0.09 0.09 0.09 0.12 0.17 0.21 0.23 0.25 0.29 0.33 0.38 0.41 0.43 0.41 0.33 0.28 0.24 0.24 0.23 0.19 0.15 0.11 0.09 0.08 0.06 0.06 0.12 0.17 0.22 0.25 0.24 0.19 0.11 0.11 0.13 0.24 0.34 0.30 0.29 0.18
0.08 0.12 0.14 0.14 0.18 0.21 0.22 0.26 0.33 0.37 0.39 0.42 0.44 0.45 0.45 0.42 0.37 0.27 0.21 0.17 0.14 0.12 0.09 0.07 0.05 0.04 0.04 0.07 0.14 0.18 0.12 0.08 0.07 0.07 0.10 0.14 0.16 0.17 0.24 0.34 0.30 0.23 0.11
0.09 0.13 0.16 0.19 0.25 0.31 0.32 0.35 0.40 0.45 0.49 0.47 0.44 0.40 0.33 0.28 0.23 0.17 0.13 0.08 0.06 0.05 0.04 0.04 0.06 0.05 0.07 0.19 0.27 0.23 0.10 0.03 0.03 0.07 0.13 0.13 0.11 0.10 0.12 0.27 0.38 0.40 0.25
0.19 0.23 0.27 0.32 0.38 0.42 0.41 0.41 0.40 0.38 0.38 0.34 0.29 0.24 0.19 0.15 0.12 0.09 0.07 0.04 0.03 0.03 0.03 0.03 0.04 0.06 0.14 0.27 0.25 0.19 0.10 0.06 0.09 0.06 0.03 0.02 0.01 0.03 0.08 0.24 0.58 0.85 0.59
0.35 0.36 0.37 0.39 0.40 0.41 0.38 0.36 0.32 0.26 0.22 0.18 0.14 0.11 0.08 0.06 0.05 0.04 0.04 0.04 0.06 0.08 0.07 0.03 0.02 0.11 0.21 0.23 0.16 0.08 0.09 0.16 0.12 0.04 0.01 0.01 0.01 0.02 0.04 0.09 0.30 0.84 1.05
0.34 0.34 0.34 0.32 0.30 0.30 0.28 0.25 0.22 0.18 0.13 0.10 0.08 0.07 0.06 0.05 0.04 0.04 0.05 0.08 0.12 0.12 0.07 0.05 0.07 0.17 0.16 0.09 0.04 0.05 0.11 0.10 0.03 0.03 0.04 0.03 0.03 0.04 0.04 0.06 0.10 0.25 0.56
0.27 0.25 0.23 0.20 0.19 0.17 0.15 0.14 0.13 0.11 0.09 0.08 0.06 0.05 0.04 0.04 0.03 0.04 0.05 0.10 0.14 0.11 0.09 0.13 0.15 0.10 0.04 0.01 0.01 0.04 0.04 0.02 0.07 0.13 0.11 0.06 0.04 0.05 0.06 0.09 0.09 0.14 0.22
0.16 0.16 0.14 0.12 0.10 0.09 0.09 0.09 0.08 0.07 0.06 0.06 0.05 0.05 0.04 0.04 0.03 0.04 0.07 0.09 0.11 0.12 0.14 0.14 0.07 0.02 0.01 0.01 0.01 0.01 0.01 0.03 0.11 0.21 0.17 0.09 0.05 0.06 0.10 0.17 0.28 0.30 0.36
0.10 0.11 0.10 0.10 0.09 0.09 0.09 0.09 0.09 0.09 0.09 0.08 0.07 0.06 0.06 0.05 0.06 0.13 0.15 0.13 0.16 0.18 0.16 0.06 0.01 0.01 0.01 0.01 0.01 0.01 0.01 0.02 0.06 0.11 0.18 0.17 0.12 0.11 0.13 0.22 0.41 0.52 0.57
0.10 0.10 0.10 0.10 0.10 0.10 0.10 0.10 0.11 0.11 0.11 0.10 0.09 0.09 0.07 0.08 0.11 0.14 0.15 0.18 0.20 0.15 0.08 0.02 0.03 0.03 0.03 0.03 0.03 0.03 0.03 0.05 0.11 0.20 0.23 0.25 0.27 0.27 0.27 0.29 0.45 0.61 0.62
0.10 0.11 0.11 0.12 0.12 0.11 0.11 0.11 0.11 0.11 0.11 0.11 0.10 0.10 0.09 0.10 0.11 0.12 0.15 0.17 0.11 0.07 0.04 0.04 0.05 0.05 0.05 0.05 0.07 0.09 0.09 0.07 0.16 0.28 0.34 0.36 0.39 0.37 0.39 0.43 0.50 0.55 0.53
0.12 0.13 0.13 0.13 0.12 0.12 0.11 0.11 0.11 0.11 0.10 0.08 0.08 0.10 0.10 0.10 0.10 0.11 0.14 0.11 0.05 0.05 0.06 0.07 0.06 0.06 0.07 0.10 0.12 0.14 0.15 0.14 0.20 0.29 0.35 0.39 0.46 0.50 0.49 0.49 0.53 0.56 0.51
0.10 0.11 0.11 0.11 0.12 0.13 0.13 0.12 0.12 0.11 0.10 0.09 0.09 0.10 0.12 0.12 0.12 0.10 0.09 0.06 0.06 0.07 0.07 0.06 0.05 0.07 0.11 0.14 0.16 0.19 0.22 0.27 0.32 0.42 0.43 0.46 0.52 0.60 0.54 0.49 0.47 0.39 0.32
0.09 0.11 0.12 0.10 0.10 0.11 0.12 0.12 0.12 0.12 0.12 0.11 0.10 0.10 0.13 0.15 0.13 0.07 0.06 0.06 0.08 0.09 0.07 0.08 0.07 0.09 0.15 0.19 0.22 0.25 0.29 0.30 0.36 0.43 0.47 0.51 0.56 0.62 0.58 0.45 0.35 0.30 0.25
0.09 0.10 0.13 0.11 0.10 0.10 0.11 0.12 0.12 0.13 0.12 0.11 0.09 0.11 0.18 0.17 0.10 0.07 0.07 0.08 0.09 0.09 0.10 0.11 0.11 0.14 0.19 0.23 0.27 0.28 0.32 0.35 0.43 0.53 0.55 0.53 0.52 0.48 0.38 0.33 0.29 0.29 0.29
0.10 0.10 0.11 0.11 0.11 0.13 0.14 0.13 0.13 0.13 0.11 0.11 0.10 0.12 0.17 0.13 0.08 0.07 0.07 0.07 0.07 0.08 0.10 0.15 0.16 0.17 0.28 0.41 0.50 0.52 0.43 0.38 0.43 0.53 0.54 0.45 0.39 0.35 0.32 0.32 0.30 0.31 0.31
0.10 0.11 0.12 0.13 0.14 0.17 0.17 0.14 0.13 0.13 0.12 0.11 0.11 0.11 0.12 0.12 0.11 0.09 0.08 0.07 0.07 0.08 0.10 0.15 0.20 0.19 0.24 0.40 0.56 0.79 0.85 0.68 0.60 0.67 0.71 0.57 0.44 0.41 0.42 0.41 0.35 0.33 0.29
0.10 0.12 0.14 0.15 0.16 0.17 0.17 0.15 0.14 0.14 0.13 0.12 0.12 0.11 0.11 0.12 0.12 0.10 0.09 0.09 0.09 0.09 0.11 0.16 0.22 0.24 0.28 0.42 0.55 0.65 0.76 0.86 1.01 1.03 0.98 0.94 0.71 0.53 0.46 0.42 0.34 0.30 0.28
0.12 0.12 0.13 0.14 0.15 0.16 0.16 0.16 0.14 0.13 0.13 0.12 0.12 0.11 0.11 0.12 0.11 0.10 0.10 0.10 0.11 0.10 0.09 0.13 0.21 0.28 0.33 0.43 0.54 0.60 0.63 0.73 0.90 0.97 0.85 0.74 0.60 0.47 0.44 0.40 0.33 0.28 0.26
0.12 0.13 0.13 0.14 0.15 0.15 0.15 0.15 0.15 0.15 0.15 0.14 0.13 0.13 0.12 0.12 0.11 0.10 0.10 0.11 0.12 0.10 0.09 0.10 0.15 0.25 0.35 0.43 0.42 0.48 0.57 0.55 0.48 0.44 0.54 0.58 0.51 0.41 0.39 0.41 0.34 0.30 0.27